Regional Weather Roundup
Issued by NWS Burlington, VT

Home | Current Version | Previous Version | Text Only | Print | Product List | Glossary On
Versions: 1 2 3 4 5 6 7 8 9 10 11 12 13 14 15 16 17 18 19 20 21 22 23 24 25 26 27 28 29 30 31 32 33 34 35 36 37 38 39 40 41 42 43 44 45 46 47 48 49 50
000
ASUS41 KBTV 290710
RWRBTV
VERMONT REGIONAL WEATHER ROUNDUP
NATIONAL WEATHER SERVICE BURLINGTON VT
200 AM EST THU JAN 29 2015

NOTE: "FAIR" INDICATES FEW OR NO CLOUDS BELOW 12,000 FEET WITH NO
SIGNIFICANT WEATHER AND/OR OBSTRUCTIONS TO VISIBILITY.

* THESE REPORTS ARE NOT UNDER NWS QUALITY CONTROL AND/OR DO NOT
  REPORT WEATHER SUCH AS PRECIPITATION AND FOG.

VTZ001>019-290800-
_____VERMONT_____


CITY           SKY/WX    TMP DP  RH WIND       PRES   REMARKS
BURLINGTON     MOSUNNY    0  -7  72 CALM      30.31S
MONTPELIER     SUNNY     -9 -13  83 E3        30.29R
MORRISVILLE    MOSUNNY  -11 -17  75 CALM      30.30R
ST. JOHNSBURY*   N/A     -9 -13  83 MISG      30.30R
MIDDLEBURY*    FAIR      -2  -7  80 CALM      30.30R
RUTLAND*       MOSUNNY   -2  -8  78 SE10      30.28S WCI -19
SPRINGFIELD    MOSUNNY   -4  -7  87 CALM      30.31R
HIGHGATE*      FAIR       0  -7  72 SE5       30.31S
NEWPORT*       FAIR     -10 -14  81 SW6       30.27S
BENNINGTON     MOSUNNY   -3  -7  82 CALM      30.29R

_____LAKE CHAMPLAIN_____


CITY           SKY/WX    TMP DP  RH WIND       PRES   REMARKS

$$

NYZ007-026>031-035-052-083-290800-
_____NORTHERN NEW YORK_____


CITY           SKY/WX    TMP DP  RH WIND       PRES   REMARKS
PLATTSBURGH    MOSUNNY   -1  -6  79 CALM      30.32R
SARANAC LAKE   MOSUNNY  -16 -20  82 CALM      30.20R
MASSENA        MOSUNNY   -4 -10  75 CALM      30.31F
OGDENSBURG*    SUNNY      3  -4  72 S5        30.29S
POTSDAM*       SUNNY      5  -4  66 CALM      30.29S
WATERTOWN      FAIR      -2  -7  79 CALM      30.29F
FT DRUM        MOSUNNY    1  -7  68 SE15      30.26F WCI -18
ALBANY         MOSUNNY    2  -4  76 CALM      30.35S
GLENS FALLS    PTSUNNY   -7 -12  79 CALM      30.35R

$$
NHZ002-005-011-290800-
_____NEW HAMPSHIRE_____


CITY           SKY/WX    TMP DP  RH WIND       PRES   REMARKS
LEBANON        MOSUNNY   -3  -9  75 CALM      30.30R
KEENE          MOSUNNY   -4  -8  84 S3        30.28R
MT WASHINGTON  MOSUNNY   14 -29  13 N28         N/A  WCI  -6
PLYMOUTH       FAIR      15   1  52 NW7       30.24S
WHITEFIELD     MOSUNNY  -19 -26  70 CALM      30.25F

$$

_____REGIONAL QUEBEC LOCATIONS_____


CITY           SKY/WX    TMP DP  RH WIND       PRES   REMARKS
MONTREAL       SUNNY      9  -6  52 SW6       30.31R
QUEBEC CITY    SUNNY      5  -2  72 SW16      30.25S WCI -14
SHERBROOKE     SUNNY    -13 -17  84 CALM      30.27S

_____REGIONAL ONTARIO LOCATIONS_____


CITY           SKY/WX    TMP DP  RH WIND       PRES   REMARKS
OTTAWA         SUNNY      3  -4  72 SE5       30.27S

______KEY______
VSB  - VISIBILITY IN MILES
WCI  - WIND CHILL INDEX
HX   - HEAT INDEX
$$
NNNN



USA.gov is the U.S. government's official web portal to all federal, state and local government web resources and services.